Regional Weather Roundup
Issued by NWS

Home | Current Version | Previous Version | Text Only | Print | Product List | Glossary On
Versions: 1 2 3 4 5 6 7 8 9 10 11 12 13 14 15 16 17 18 19 20 21 22 23 24 25 26 27 28
000
ASUS45 KREV 252010
RWRNV
NEVADA REGIONAL WEATHER ROUNDUP
NATIONAL WEATHER SERVICE RENO NV
100 PM PDT WED APR 25 2018

NOTE: "FAIR" INDICATES FEW OR NO CLOUDS BELOW 12,000 FEET WITH NO
SIGNIFICANT WEATHER AND/OR OBSTRUCTIONS TO VISIBILITY.

NVZ001-003-004-252100-
WESTERN NEVADA

CITY           SKY/WX    TMP DP  RH WIND       PRES   REMARKS
RENO           MOSUNNY   76  26  15 CALM      30.14F
CARSON CITY    FAIR      75  23  14 NE6       30.17F
MINDEN         FAIR      73  28  19 NW6       30.16F
FALLON         MOSUNNY   77  26  15 VRB6      30.13F
LOVELOCK       SUNNY     75  23  14 VRB3      30.14F
HAWTHORNE      SUNNY     75  19  12 N6G13     30.13F
$$

NVZ002-CAZ072-073-252100-
NORTHERN AND CENTRAL SIERRA

CITY           SKY/WX    TMP DP  RH WIND       PRES   REMARKS
S. LAKE TAHOE  SUNNY     66  33  29 VRB3      30.23F
TRUCKEE        SUNNY     72  12  10 SE10      30.22F
SQUAW VLY 8000   N/A     54  25  32 SE1         N/A
BLUE CANYON    SUNNY     68  25  19 CALM      30.21F
MAMMOTH LAKES  FAIR      70  17  13 E8G16     30.26F
BRIDGEPORT     FAIR      71   5   7 SW9       30.22S
$$

NVZ030-031-036-252100-
NORTHERN NEVADA

CITY           SKY/WX    TMP DP  RH WIND       PRES   REMARKS
ELKO           SUNNY     70  26  19 SW7       30.19F
WINNEMUCCA     SUNNY     76  30  18 NW6       30.17F
WENDOVER       SUNNY     65  25  22 VRB6      30.19F
$$

NVZ035-037-252100-
CENTRAL NEVADA

CITY           SKY/WX    TMP DP  RH WIND       PRES   REMARKS
ELY            SUNNY     71  20  14 VRB5G20   30.21F
EUREKA           N/A     72  21  14 VRB7      30.20
$$

NVZ013-014-252100-
SOUTH CENTRAL NEVADA

CITY           SKY/WX    TMP DP  RH WIND       PRES   REMARKS
TONOPAH        SUNNY     76  20  12 SW10G18   30.18F
$$

NVZ017-020-022-252100-
SOUTHERN NEVADA

CITY           SKY/WX    TMP DP  RH WIND       PRES   REMARKS
LAS VEGAS      MOSUNNY   87  23   9 NE8       30.02F
N. LAS VEGAS   SUNNY     86  18   8 E8        30.02F
NELLIS AFB     SUNNY     88  22   9 NE6       30.00F
HENDERSON      SUNNY     85  25  11 N5        30.06F
MERCURY        NOT AVBL
$$




USA.gov is the U.S. government's official web portal to all federal, state and local government web resources and services.